Regional Weather Roundup
Issued by NWS

Home | Current Version | Previous Version | Graphics & Text | Print | Product List | Glossary On
Versions: 1 2 3 4 5 6 7 8 9 10 11 12 13 14 15 16 17 18 19 20 21 22 23 24 25 26 27 28 29 30 31 32 33 34 35 36 37 38 39 40 41 42 43 44 45 46 47 48 49 50
000
ASUS43 KOAX 251402
RWRNE

WEATHER ROUNDUP FOR NEBRASKA
NATIONAL WEATHER SERVICE OMAHA NE
900 AM CDT TUE APR 25 2017

NOTES: SATELLITE DATA IS BEING USED TO AUGMENT CLOUD COVER ABOVE
       12000 FEET.
       "FAIR" INDICATES FEW OR NO CLOUDS BELOW 12,000 FEET WITH NO
       SIGNIFICANT WEATHER AND/OR OBSTRUCTIONS TO VISIBILITY.

  * THESE STATIONS DO NOT REPORT WEATHER SUCH AS RAIN...SNOW OR FOG.

NEZ001>004-019>022-054>056-251500-
NEBRASKA PANHANDLE

CITY           SKY/WX    TMP DP  RH WIND       PRES   REMARKS
SCOTTSBLUFF    PTSUNNY   50  38  63 CALM      29.55S
ALLIANCE       CLOUDY    42  40  92 SE10      29.56S
CHADRON        LGT RAIN  36  34  92 NE15      29.62R WCI  27
KIMBALL        SUNNY     46  40  78 NW9       29.56F
SIDNEY         CLOUDY    44  42  93 VRB5      29.56F
$$

NEZ057>060-069>072-079>082-251500-
SOUTHWEST NEBRASKA

CITY           SKY/WX    TMP DP  RH WIND       PRES   REMARKS
NORTH PLATTE   LGT RAIN  41  39  93 N9        29.60S FOG
IMPERIAL       CLOUDY    48  46  93 E12       29.54F
LEXINGTON      LGT RAIN  44  41  90 N15G22    29.58R
MCCOOK         CLOUDY    49  47  93 N12       29.57R
OGALLALA       CLOUDY    44  42  94 E16G22    29.54F
$$

NEZ005>010-023>029-035>040-094-251500-
NORTH CENTRAL NEBRASKA

CITY           SKY/WX    TMP DP  RH WIND       PRES   REMARKS
VALENTINE      LGT RAIN  35  32  88 N10       29.67R FOG     WCI  27
AINSWORTH      LGT RAIN  34  34 100 N12       29.67R WCI  25
BROKEN BOW     RAIN      39  38  96 N13       29.62R WCI  31
O`NEILL        CLOUDY    37  35  90 N14G20    29.64S WCI  29
ORD            RAIN      40  37  89 N21       29.58R FOG     WCI  30
THEDFORD       LGT RAIN  37  36  96 NE8       29.64S WCI  31
$$

NEZ041-046>049-061>064-073>077-083>087-251500-
SOUTH CENTRAL NEBRASKA

CITY           SKY/WX    TMP DP  RH WIND       PRES   REMARKS
GRAND ISLAND   LGT RAIN  44  43  96 N14       29.53R
AURORA         CLOUDY    45  42  91 NE22      29.50S
HASTINGS       CLOUDY    47  42  83 NE16      29.54R
HEBRON         CLOUDY    51  43  73 NE13      29.47F
HOLDREGE       CLOUDY    45  43  91 N14       29.55F
KEARNEY *      CLOUDY    45  39  81 N16G24    29.57F
YORK           CLOUDY    45  41  87 NE18      29.50F
$$

NEZ011>018-030>034-042>045-251500-
NORTHEAST NEBRASKA

CITY           SKY/WX    TMP DP  RH WIND       PRES   REMARKS
NORFOLK        LGT RAIN  40  37  89 N15       29.53F WCI  32
ALBION         LGT RAIN  41  38  89 N16G23    29.53S
BLAIR          CLOUDY    45  40  82 N16G26    29.48R
FREMONT        CLOUDY    44  39  82 N15G22    29.52S
TEKAMAH        CLOUDY    45  40  82 N22G28    29.54F
WAYNE          LGT RAIN  40  40  99 N16       29.57R WCI  32
$$

NEZ050>053-065>068-078-088>093-251500-
SOUTHEAST NEBRASKA

CITY           SKY/WX    TMP DP  RH WIND       PRES   REMARKS
LINCOLN        CLOUDY    51  42  71 N15       29.52S
OMAHA EPPLEY   CLOUDY    49  41  74 N17       29.48R
BEATRICE       CLOUDY    53  47  82 NE8       29.47F
FALLS CITY     MOSUNNY   62  50  64 SE9       29.44F
NEBRASKA CITY  CLOUDY    55  45  68 N7        29.48R
PLATTSMOUTH    CLOUDY    52  44  74 NW8       29.50R
$$

NEZ044-045-051>053-067-251500-
OMAHA AREA

CITY           SKY/WX    TMP DP  RH WIND       PRES   REMARKS
OMAHA EPPLEY   CLOUDY    49  41  74 N17       29.48R
BLAIR          CLOUDY    45  40  82 N16G26    29.48R
FREMONT        CLOUDY    44  39  82 N15G22    29.52S
MILLARD        CLOUDY    51  43  75 E3        29.53R
OFFUTT AFB     CLOUDY    50  42  74 N8        29.51R
PLATTSMOUTH    CLOUDY    52  44  74 NW8       29.50R
WAHOO          CLOUDY    46  38  76 N20G26    29.53R
$$




USA.gov is the U.S. government's official web portal to all federal, state and local government web resources and services.